Home > Time Zones > World Clock > Weather > Norway > Oslo > Past weeks

Flag for Norway Weather past 2 weeks in Oslo, Norway

Now
35 °F

Chilly.


Feels Like: 32 °F
Forecast: 33 / 53 °F
Wind: 3 mph from Northeast

Location: Oslo-Blindern

Current Time: Apr 27, 2015 at 2:56:51 AM

Latest Report: Apr 27, 2015 at 2:00 AM


Visibility: N/A

Pressure: 29.63 "Hg

Humidity: 76%

Dew point: 28 °F

Location of OsloLocation

Historic Weather in Oslo — Graph

°F

Oslo temperature yesterday

Maximum temperature yesterday: 53 °F (at 3:00 PM)
Minimum temperature yesterday: 33 °F (at 6:00 AM)
Average temperature yesterday: 45 °F

Past Weeks' High & Low Weather Summary

 TemperatureHumidityPressure
High72 °F (Apr 20, 3:00 PM)97% (Apr 12, 2:00 AM)30.35 "Hg (Apr 12, 2:00 AM)
Low32 °F (Apr 14, 4:00 AM)19% (Apr 20, 8:00 PM)29.35 "Hg (Apr 25, 8:00 PM)
Average47 °F53%29.89 "Hg
* Reported Apr 12 1:00 AM — Apr 27 1:00 AM, Oslo, Weather by CustomWeather, © 2015

Note: Actual official high and low records may vary slightly from our data, if they occured in-between our weather recording intervals... More about our weather records

Advertising

Oslo weather history for previous 24 hours

 ConditionsComfort  
Time TempWeatherWind HumidityBarometerVisibility
1:00 AM
Mon, Apr 27
35 °FChilly.3 mph80%29.62 "HgN/A
12:00 AM36 °FChilly.2 mph83%29.62 "HgN/A
11:00 PM
Sun, Apr 26
38 °FPassing clouds.1 mph80%29.62 "Hg43 mi
10:00 PM42 °FQuite cool.1 mph71%29.61 "HgN/A
9:00 PM44 °FQuite cool.2 mph65%29.59 "HgN/A
8:00 PM46 °FScattered clouds.5 mph57%29.58 "Hg43 mi
7:00 PM48 °FCool.5 mph52%29.57 "HgN/A
6:00 PM45 °FQuite cool.7 mph64%29.58 "HgN/A
5:00 PM50 °FPartly sunny.6 mph48%29.56 "Hg43 mi
4:00 PM52 °FCool.7 mph37%29.54 "HgN/A
3:00 PM53 °FCool.7 mph37%29.54 "HgN/A
2:00 PM53 °FPassing clouds.8 mph34%29.53 "Hg43 mi
1:00 PM53 °FCool.5 mph38%29.50 "HgN/A
12:00 PM50 °FCool.5 mph44%29.53 "HgN/A
11:00 AM48 °FPassing clouds.5 mph46%29.50 "Hg47 mi
10:00 AM46 °FCool.5 mph56%29.50 "HgN/A
9:00 AM44 °FQuite cool.3 mph64%29.50 "HgN/A
8:00 AM40 °FPassing clouds.3 mph72%29.50 "Hg47 mi
7:00 AM37 °FChilly.2 mph80%29.47 "HgN/A
6:00 AM33 °FChilly.1 mph86%29.47 "HgN/A
4:00 AM38 °FChilly.3 mph71%29.44 "HgN/A
3:00 AM38 °FChilly.2 mph73%29.41 "HgN/A
2:00 AM41 °FPassing clouds.5 mph74%29.41 "Hg43 mi
Weather by CustomWeather, © 2015

See weather overviewHow to use our weather pages